Location: Bay Shore Mobile Home Park
(38.5762°N, 75.0841°W)
Time: 19:35:44
(UTC+00:00)

YAOGAN 1 - Pass Details

Date: 15 November 2025
Orbit: 605 x 607 km, 97.8° (Epoch: 08 December)

Event Time Altitude Azimuth Distance (km) Brightness Sun altitude
Rises 22:27:59 0° 128° (SE) 2,855 5.6 -8.3°
Reaches altitude 10° 22:30:45 10° 108° (ESE) 1,955 4.6 -8.9°
Maximum altitude 22:33:33 17° 67° (ENE) 1,531 3.9 -9.4°
Drops below altitude 10° 22:36:22 10° 25° (NNE) 1,963 4.7 -9.9°
Sets 22:39:08 0° 6° (N) 2,872 5.8 -10.4°
